STARLINK-1046 (44751 NORAD) Tracking and Keplerian Element Data

This shows tracking and keplerian element data for the satellite.

Feedback or suggestion? Click here.




ElementValue
Catalog44751
NameSTARLINK-1046
Epoch Orbit1035
Epoch Day17.91667824
Epoch Year2020
RAAN214.821
Inclination53.0044
Eccentricity0.000248
Argument of Perigee84.5813
Mean Anonmoly179.5229
Mean Motion15.05576963
Decay Rate0.00023074
L11 44751U 19074AQ 20017.91667824 .00023074 00000-0 15977-2 0 9992
L22 44751 53.0044 214.8210 0002480 84.5813 179.5229 15.05576963 10351

Live tracking and technical data element details for STARLINK-1046 (NORAD 44751). STARLINK-1046 can be tracked NOW for your location showing map with azimuth and elevation plus other details from your city location.

Track the satellite on the map from your city or location and see movement details for azimuth, elevation, latitude, longitude, range, height, and movement on the map or in text.







IsCatalogInMostPopularTable: catalog: 44751, numindb: 12
Update: records affected: 1



GetName: 44751 STARLINK-1046

Hit Count: updated at: Sat, 18 Jan 2020 18:23:18 GMT